This is the latest recevied weather packets stored in our database for station/object N5ZP. If no packets are shown the sender has not sent any weather packets the latest 10 day(s).
| Time | Temp. | Humidity | Pressure | Rain* | Wind** | Luminosity | Snow |
|---|---|---|---|---|---|---|---|
| 1777802972 | 11.11° C | 84% | 1016.8 hPa | 0 mm | - | 0 W/m² | - |
| 1777802670 | 11.67° C | 84% | 1017 hPa | 0 mm | - | 0 W/m² | - |
| 1777802368 | 12.22° C | 81% | 1017 hPa | 0 mm | - | 0 W/m² | - |
| 1777802066 | 12.22° C | 78% | 1016.9 hPa | 0 mm | - | 0 W/m² | - |
| 1777801763 | 12.22° C | 79% | 1016.9 hPa | 0 mm | - | 0 W/m² | - |
| 1777801460 | 12.78° C | 78% | 1016.9 hPa | 0 mm | - | 0 W/m² | - |
| 1777801157 | 12.78° C | 76% | 1017 hPa | 0 mm | - | 0 W/m² | - |
| 1777800854 | 12.78° C | 75% | 1017.1 hPa | 0 mm | - | 0 W/m² | - |
| 1777800548 | 12.78° C | 75% | 1016.9 hPa | 0 mm | - | 0 W/m² | - |
| 1777800245 | 13.33° C | 75% | 1016.9 hPa | 0 mm | - | 0 W/m² | - |
| 1777799941 | 13.33° C | 74% | 1016.9 hPa | 0 mm | - | 0 W/m² | - |
| 1777799638 | 12.78° C | 75% | 1017 hPa | 0 mm | - | 0 W/m² | - |
| 1777799334 | 12.78° C | 75% | 1017 hPa | 0 mm | - | 0 W/m² | - |
| 1777799030 | 12.78° C | 75% | 1016.8 hPa | 0 mm | - | 0 W/m² | - |
| 1777798725 | 13.33° C | 75% | 1016.8 hPa | 0 mm | - | 0 W/m² | - |
| 1777798422 | 13.33° C | 74% | 1016.8 hPa | 0 mm | - | 0 W/m² | - |
| 1777798119 | 13.33° C | 73% | 1016.8 hPa | 0 mm | - | 0 W/m² | - |
| 1777797817 | 13.33° C | 73% | 1016.7 hPa | 0 mm | - | 0 W/m² | - |
| 1777797515 | 13.33° C | 73% | 1016.7 hPa | 0 mm | - | 0 W/m² | - |
| 1777797211 | 13.33° C | 74% | 1016.6 hPa | 0 mm | - | 0 W/m² | - |
| 1777796908 | 13.33° C | 74% | 1016.9 hPa | 0 mm | - | 0 W/m² | - |
| 1777796605 | 13.89° C | 73% | 1016.6 hPa | 0 mm | - | 0 W/m² | - |
| 1777796301 | 13.89° C | 72% | 1016.8 hPa | 0 mm | - | 0 W/m² | - |
| 1777795771 | 12.78° C | 75% | 1017 hPa | 0 mm | - | 0 W/m² | - |
| 1777795468 | 12.78° C | 75% | 1017 hPa | 0 mm | - | 0 W/m² | - |
* Rain latest hour (hover to see other rain measurements)
** Current wind speed in m/s (hover to see current wind gust speed)